STARLINK-34326, 64221

Orbit data source: Space-Track

STARLINK-34326, 64221 is a payload satellite owned by SpaceX/Seattle (US) in LEO that was launched on Sat, 31 May 2025 UTC via an FALCON 9 launch vehicle from the Air Force Western Test Range (AFWTR). Payload-class satellites include a variety of spacecraft equipped with specific instruments for various scientific and technological missions. These include communications satellites like Starlink; space stations such as the ISS; scientific satellites like the Hubble; Earth observation satellites from companies like Planet Labs, Umbra, and HawkEye 360; GPS; miniature CubeSats for education and research; and military/defense satellites.

Loading next visibility...
Identifier
64221, 2025-117U
Orbit
LEO
Country
Flag of USUS
Related business
Manufacturer
SpaceX/Seattle
Mission
Operational Commercial Communications
Bus & Motor
STARLINK V2MO, Unknown motor
Mass
575 kg wet, ~530 kg dry
Launch date (UTC)
2025-05-31 (1 year ago)
Launch vehicle
FALCON 9
Launch site
Air Force Western Test Range (AFWTR)
Object type
Payload
Rocket body
Debris
Shape & HBR
Box + 1 Pan, 17.7 m
Radar Cross Section
41.120 m², Large (>1 m²)

Expand to show TLE details & history
Last TLE update: 10 hours ago

TLE from 10 hours ago
0 STARLINK-34326
1 64221U 25117U   26235.91668981 -.00025223  00000-0 -73780-3 0  9991
2 64221  53.1586 340.5314 0001261  82.7710 207.0496 15.34402954  5886
Epoch: 2026-08-23T22:00Z
TLE epoch observation values (Epoch: 2026-08-23T22:00:01.999Z)
Latitude
-49.0196°
Longitude
-20.74358°
Altitude
480.321 km
Speed
7.625 km/s
True Right ascension
18h 45m 52s
True Declination
-48° 50' 32"
Sunlit
Object was in full shadow at epoch
Visualization orbit readout
Latitude
Unknown
Longitude
Unknown
Altitude
Unknown
Speed
Unknown
Apparent Right ascension
Unknown
Apparent Declination
Unknown
Sunlit
N/A
Visualization observer readout
Local Sidereal Time
23:11:57
Azimuth
Unknown
Elevation
Unknown
Doppler factor
Unknown
Orbital elements
Apogee altitude
463.814 km
Perigee altitude
462.089 km
Semi-major axis
6,841.089 km
Eccentricity
0.00013
Inclination
53.1586°
RAAN
340.5314°
Arg. of periapsis
82.771°
True anomaly
207.04303°
Mean anomaly
207.0496°
Eccentric anomaly
207.04631°
Mean motion
3.83579 °/min
Orbital period
93.85 mins
BSTAR
-0.0007378
Loading maneuver chart data...
Computing Atmospheric mass density...
Loading historical data...
Loading historical data...
Loading historical data...
Loading historical data...
Loading historical data...
Loading historical data...
Loading historical data...

Documentation

Showing up to 5 results
|